Weather in Gnjilane

Serbia     42°27′44″N   21°27′55″E
temp.,
°C
wind,
m/s
gust,
m/s
humid.,
%
clouds,
%
prec.,
mm/h
press.,
hPa
HPBL,
m
19 april, mon
mon1923:00+4n239591 0.0 101775
02:00+3n2395100 0.0 101686
05:00+2nne2296100 0.0 101566
08:00+5nne1290100 0.0 1014386
11:00+5nne2289100 0.1 1014423
14:00+5nnw2391100 0.2 1013540
17:00+5nnw2393100 0.2 1013585
20:00+4wnw2593100 0.3 1014524
20 april, tue
tue2023:00+4wnw2695100 0.2 1014651
02:00+3wnw2697100 0.6 1014533
05:00+3wnw1292100 0.1 1015171
08:00+5wnw1285100 0.1 1016457
11:00+7w1272100 0.1 1016950
14:00+8wsw347275 0.3 1015862
17:00+10w466262 0.3 10141403
20:00+5nnw22857 0.7 101629
21 april, wed
wed2123:00+4nw22885 0.1 101815
02:00+2nw22895 0.1 101914
05:00+1wnw119111 0.0 101910
08:00+6w127914 0.0 1020320
11:00+11w34597 0.0 10191263
14:00+13w455010 0.2 10181889
17:00+13wnw55525 0.1 10171427
20:00+7nnw22803 0.1 101918
22 april, thu
thu2223:00+5nw11843 0.0 102110
02:00+4wnw11845 0.0 102110
05:00+3w118537 0.0 102210
08:00+8ssw11750 0.0 1022209
11:00+13sse23555 0.0 10201100
14:00+16sse234148 0.0 10182015
17:00+15wsw2346100 0.0 10171846
20:00+9nw2268100 0.0 101812
23 april, fri
fri2323:00+8nw1170100 0.0 101910
02:00+7n0074100 0.0 101810
05:00+7sse0177100 0.0 101810
08:00+8n0193100 1.6 101974
11:00+8n1194100 2.8 1019165
14:00+8n1192100 5.9 1019158
17:00+8nne2594100 2.8 1018323
20:00+6n3594100 4.3 1020338